Glens Falls, NY

9:30 PM EST on November 16, 2019 (GMT -0500)
Bennett Memorial

Weather History for KGFL - September, 2019

Change the Weather History Date:

Saturday, September 28, 2019

  Actual Average Record
Temperature  
Mean Temperature 62 °F 53 °F  
Max Temperature 78 °F 66 °F 82 °F (1959)
Min Temperature 45 °F 41 °F 27 °F (1965)
Degree Days  
Heating Degree Days 3 12  
Month to date heating degree days 171 195  
Since 1 July heating degree days 199 261  
Cooling Degree Days 0 0  
Month to date cooling degree days 21 23  
Year to date cooling degree days 416 350  
Growing Degree Days 12 (Base 50)    
Moisture  
Dew Point 54 °F    
Average Humidity 78    
Maximum Humidity 100    
Minimum Humidity 56    
Precipitation  
Precipitation 0.00 in 0.12 in 1.57 in (1909)
Month to date precipitation 2.06 3.14  
Year to date precipitation 30.85 28.95  
Sea Level Pressure  
Sea Level Pressure 30.04 in    
Wind  
Wind Speed 5 mph (SSW)    
Max Wind Speed 16 mph    
Max Gust Speed 22 mph    
Visibility 8 miles    
Events Fog    
T = Trace of Precipitation, MM = Missing Value Source: NWS Daily Summary

Daily Weather History Graph

Daily Weather History Graph

Search for Another Location

Airport or City:

Astronomy

Sep. 28, 2019 Rise Set
Actual Time 6:48 AM EDT 6:41 PM EDT
Civil Twilight 6:19 AM EDT 7:09 PM EDT
Nautical Twilight 5:46 AM EDT 7:42 PM EDT
Astronomical Twilight 5:12 AM EDT 8:16 PM EDT
Moon 6:18 AM EDT (9/28) 7:06 PM EDT (9/28)
Length of Visible Light 12h 50m
Length of Day
11h 53m
Waning Crescent, 0% of the Moon is Illuminated
Sep 28
Waning Crescent
Sep 28
New
Oct 5
First Quarter
Oct 13
Full
Oct 21
Last Quarter

Hourly Weather History & Observations

Time (EDT) Temp. Dew Point Humidity Pressure Visibility Wind Dir Wind Speed Gust Speed Precip Events Conditions
12:53 AM 51.1 °F 48.9 °F 92% 30.06 in 10.0 mi Calm Calm - N/A   Clear
1:53 AM 51.1 °F 48.9 °F 92% 30.05 in 10.0 mi Calm Calm - N/A   Clear
2:53 AM 50.0 °F 48.0 °F 93% 30.04 in 10.0 mi Calm Calm - N/A   Clear
3:53 AM 48.9 °F 48.0 °F 97% 30.05 in 6.0 mi SSW 3.5 mph - N/A   Clear
4:53 AM 48.9 °F 48.0 °F 97% 30.06 in 7.0 mi Calm Calm - N/A   Clear
4:59 AM 48.0 °F 48.0 °F 100% 30.06 in 1.8 mi Calm Calm - N/A   Clear
5:07 AM 48.0 °F 46.9 °F 96% 30.06 in 3.0 mi Calm Calm - N/A   Clear
5:26 AM 46.9 °F 46.0 °F 97% 30.06 in 1.8 mi Calm Calm - N/A   Clear
5:34 AM 48.0 °F 46.9 °F 96% 30.06 in 3.0 mi Calm Calm - N/A   Clear
5:53 AM 46.9 °F 45.0 °F 93% 30.07 in 10.0 mi Calm Calm - N/A   Clear
6:53 AM 46.0 °F 46.0 °F 100% 30.07 in 1.0 mi Calm Calm - N/A   Clear
7:12 AM 46.0 °F 45.0 °F 96% 30.07 in 0.2 mi Calm Calm - N/A Fog Fog
7:24 AM 48.0 °F 46.0 °F 93% 30.07 in 1.2 mi Calm Calm - N/A   Clear
7:36 AM 48.9 °F 46.9 °F 93% 30.07 in 10.0 mi Calm Calm - N/A   Clear
7:53 AM 51.1 °F 48.9 °F 92% 30.08 in 10.0 mi Calm Calm - N/A   Clear
8:53 AM 59.0 °F 55.0 °F 87% 30.06 in 10.0 mi SSE 5.8 mph - N/A   Clear
9:53 AM 64.0 °F 57.0 °F 78% 30.05 in 10.0 mi South 8.1 mph 18.4 mph N/A   Clear
10:53 AM 66.0 °F 57.9 °F 75% 30.02 in 10.0 mi South 10.4 mph - N/A   Clear
11:53 AM 71.1 °F 60.1 °F 68% 30.00 in 10.0 mi South 13.8 mph 20.7 mph N/A   Clear
12:53 PM 75.0 °F 60.1 °F 60% 29.99 in 10.0 mi SW 11.5 mph - N/A   Partly Cloudy
1:53 PM 75.9 °F 60.1 °F 58% 29.98 in 10.0 mi SSW 11.5 mph - N/A   Clear
2:53 PM 77.0 °F 60.1 °F 56% 29.97 in 10.0 mi South 12.7 mph - N/A   Scattered Clouds
3:53 PM 77.0 °F 60.1 °F 56% 29.97 in 10.0 mi SSW 8.1 mph - N/A   Partly Cloudy
4:53 PM 75.0 °F 62.1 °F 64% 29.99 in 10.0 mi South 6.9 mph - N/A   Scattered Clouds
5:53 PM 73.9 °F 63.0 °F 68% 29.99 in 10.0 mi South 5.8 mph - N/A   Mostly Cloudy
6:53 PM 69.1 °F 64.0 °F 84% 30.01 in 10.0 mi Calm Calm - N/A   Scattered Clouds
7:53 PM 69.1 °F 64.0 °F 84% 30.03 in 10.0 mi Calm Calm - N/A   Scattered Clouds
8:53 PM 66.0 °F 63.0 °F 90% 30.04 in 10.0 mi Calm Calm - N/A   Clear
9:53 PM 68.0 °F 63.0 °F 84% 30.06 in 10.0 mi Calm Calm - N/A   Mostly Cloudy
10:53 PM 68.0 °F 61.0 °F 78% 30.07 in 10.0 mi Calm Calm - N/A   Partly Cloudy
11:53 PM 63.0 °F 61.0 °F 93% 30.08 in 10.0 mi WSW 3.5 mph - N/A   Mostly Cloudy